Home > Weather > Campinas > Past weeks

Flag for Brazil Past Weather in Campinas, São Paulo, Brazil — Yesterday and Last 2 Weeks

Now
59 °F

Fog.


Feels Like: 56 °F
Forecast: 54 / 75 °F
Wind: 17 mph from Southeast

Location: Campinas Aeroporto

Current Time: Jun 24, 2016 at 10:37:14 PM

Latest Report: Jun 24, 2016 at 10:00 PM


Visibility: 3 mi

Pressure: 30.27 "Hg (27.90 "Hg at 686m altitude)

Humidity: 82%

Dew Point: 54 °F

Location of CampinasLocation

Past Weather in Campinas — Graph

°F

Campinas Temperature Yesterday

Maximum temperature yesterday: 75 °F (at 2:00 PM)
Minimum temperature yesterday: 57 °F (at 4:00 AM)
Average temperature yesterday: 65 °F

High & Low Weather Summary for the Past Weeks

 TemperatureHumidityPressure
High79 °F (Jun 17, 4:00 PM)100% (Jun 10, 1:00 AM)30.42 "Hg (Jun 10, 1:00 AM)
Low39 °F (Jun 13, 6:00 AM)20% (Jun 13, 12:00 PM)30.12 "Hg (Jun 10, 2:00 PM)
Average60 °F67%30.23 "Hg
* Reported Jun 9 9:00 PM — Jun 24 9:00 PM, Campinas, Weather by CustomWeather, © 2016

Note: Actual official high and low records may vary slightly from our data, if they occured in-between our weather recording intervals... More about our weather records

Advertising

Campinas Weather History for the Previous 24 Hours

Scroll right to see more
 ConditionsComfort  
Time TempWeatherWind HumidityBarometerVisibility
9:00 PM
Fri, Jun 24
59 °FClear.16 mph82%30.24 "Hg4 mi
8:00 PM61 °FClear.17 mph77%30.24 "Hg5 mi
7:00 PM64 °FClear.13 mph68%30.21 "Hg10 mi
6:00 PM68 °FClear.13 mph56%30.21 "Hg10 mi
5:00 PM73 °FClear.9 mph41%30.18 "Hg10 mi
4:00 PM77 °FSunny.6 mph34%30.18 "Hg10 mi
3:00 PM77 °FSunny.9 mph36%30.18 "Hg10 mi
2:00 PM75 °FSunny.7 mph41%30.18 "Hg10 mi
1:00 PM75 °FSunny.6 mph47%30.21 "Hg10 mi
12:00 PM72 °FSunny.8 mph57%30.24 "Hg10 mi
11:00 AM68 °FSunny.9 mph60%30.27 "Hg10 mi
10:00 AM64 °FSunny.13 mph68%30.27 "Hg10 mi
9:00 AM61 °FSunny.15 mph72%30.24 "Hg10 mi
8:00 AM57 °FSunny.15 mph77%30.24 "Hg10 mi
7:00 AM55 °FClear.15 mph82%30.24 "Hg5 mi
6:00 AM55 °FClear.15 mph88%30.21 "Hg6 mi
5:00 AM55 °FClear.14 mph88%30.21 "Hg6 mi
4:00 AM55 °FClear.14 mph88%30.18 "Hg5 mi
3:00 AM55 °FClear.15 mph88%30.21 "Hg5 mi
2:00 AM57 °FClear.16 mph82%30.21 "Hg10 mi
1:00 AM57 °FClear.14 mph82%30.21 "Hg10 mi
12:00 AM59 °FClear.14 mph77%30.21 "Hg10 mi
11:00 PM
Thu, Jun 23
59 °FClear.16 mph77%30.21 "Hg10 mi
10:00 PM59 °FClear.12 mph82%30.18 "Hg10 mi
Weather by CustomWeather, © 2016

See weather overviewHow to use our weather pages